Time,TemperatureF,DewpointF,PressureIn,WindDirection,WindDirectionDegrees,WindSpeedMPH,WindSpeedGustMPH,Humidity,HourlyPrecipIn,Conditions,Clouds,dailyrainin,SoftwareType,DateUTC
2013-06-20 00:01:00,43.0,28.0,30.03,SSW,209,6.0,-999.0,54,-99.99,,,-99.99,,2013-06-20 06:01:00,
2013-06-20 00:11:00,44.0,26.0,30.03,SW,232,8.0,-999.0,49,-99.99,,,-99.99,,2013-06-20 06:11:00,
2013-06-20 00:22:00,44.0,28.0,30.04,South,190,6.0,-999.0,52,-99.99,,,-99.99,,2013-06-20 06:22:00,
2013-06-20 00:33:00,44.0,27.0,30.04,SSW,200,5.0,-999.0,51,-99.99,,,-99.99,,2013-06-20 06:33:00,
2013-06-20 00:43:00,40.0,27.0,30.05,South,178,3.0,-999.0,60,-99.99,,,-99.99,,2013-06-20 06:43:00,
2013-06-20 00:53:00,39.0,27.0,30.05,SE,142,3.0,-999.0,62,-99.99,,,-99.99,,2013-06-20 06:53:00,
2013-06-20 01:01:00,39.0,27.0,30.06,South,175,3.0,-999.0,63,-99.99,,,-99.99,,2013-06-20 07:01:00,
2013-06-20 01:11:00,40.0,28.0,30.06,South,175,0.0,-999.0,62,-99.99,,,-99.99,,2013-06-20 07:11:00,
2013-06-20 01:22:00,39.0,27.0,30.04,South,175,1.0,-999.0,62,-99.99,,,-99.99,,2013-06-20 07:22:00,
2013-06-20 01:33:00,38.0,28.0,30.04,South,175,0.0,-999.0,66,-99.99,,,-99.99,,2013-06-20 07:33:00,
2013-06-20 01:43:00,37.0,27.0,30.04,SSE,159,2.0,-999.0,67,-99.99,,,-99.99,,2013-06-20 07:43:00,
2013-06-20 01:52:00,38.0,28.0,30.05,SSE,157,4.0,-999.0,67,-99.99,,,-99.99,,2013-06-20 07:52:00,
2013-06-20 02:02:00,38.0,28.0,30.05,SSE,157,3.0,-999.0,66,-99.99,,,-99.99,,2013-06-20 08:02:00,
2013-06-20 02:11:00,38.0,27.0,30.05,SE,146,3.0,-999.0,65,-99.99,,,-99.99,,2013-06-20 08:11:00,
2013-06-20 02:22:00,37.0,27.0,30.05,SE,146,2.0,-999.0,66,-99.99,,,-99.99,,2013-06-20 08:22:00,
2013-06-20 02:33:00,37.0,27.0,30.05,SSE,155,1.0,-999.0,66,-99.99,,,-99.99,,2013-06-20 08:33:00,
2013-06-20 02:43:00,36.0,27.0,30.05,SSE,155,0.0,-999.0,70,-99.99,,,-99.99,,2013-06-20 08:43:00,
2013-06-20 02:52:00,36.0,27.0,30.05,SSE,155,0.0,-999.0,69,-99.99,,,-99.99,,2013-06-20 08:52:00,
2013-06-20 03:01:00,36.0,26.0,30.03,SSE,155,0.0,-999.0,68,-99.99,,,-99.99,,2013-06-20 09:01:00,
2013-06-20 03:11:00,35.0,26.0,30.03,SSE,155,0.0,-999.0,68,-99.99,,,-99.99,,2013-06-20 09:11:00,
2013-06-20 03:21:00,35.0,27.0,30.03,SSE,155,0.0,-999.0,71,-99.99,,,-99.99,,2013-06-20 09:21:00,
2013-06-20 03:33:00,35.0,27.0,30.03,SSE,155,0.0,-999.0,72,-99.99,,,-99.99,,2013-06-20 09:33:00,
2013-06-20 03:42:00,35.0,27.0,30.03,SSE,155,0.0,-999.0,73,-99.99,,,-99.99,,2013-06-20 09:42:00,
2013-06-20 03:52:00,35.0,27.0,30.03,SSE,155,0.0,-999.0,72,-99.99,,,-99.99,,2013-06-20 09:52:00,
2013-06-20 04:01:00,34.0,27.0,30.03,SSE,155,1.0,-999.0,75,-99.99,,,-99.99,,2013-06-20 10:01:00,
2013-06-20 04:11:00,35.0,27.0,30.03,South,172,1.0,-999.0,73,-99.99,,,-99.99,,2013-06-20 10:11:00,
2013-06-20 04:22:00,34.0,27.0,30.04,South,172,2.0,-999.0,75,-99.99,,,-99.99,,2013-06-20 10:22:00,
2013-06-20 04:33:00,33.0,27.0,30.04,SSW,200,2.0,-999.0,77,-99.99,,,-99.99,,2013-06-20 10:33:00,
2013-06-20 04:43:00,34.0,28.0,30.04,SW,223,3.0,-999.0,78,-99.99,,,-99.99,,2013-06-20 10:43:00,
2013-06-20 04:53:00,34.0,28.0,30.03,SW,223,2.0,-999.0,77,-99.99,,,-99.99,,2013-06-20 10:53:00,
2013-06-20 05:01:00,33.0,27.0,30.02,SW,223,2.0,-999.0,78,-99.99,,,-99.99,,2013-06-20 11:01:00,
2013-06-20 05:11:00,33.0,27.0,30.02,SW,223,2.0,-999.0,78,-99.99,,,-99.99,,2013-06-20 11:11:00,
2013-06-20 05:22:00,31.0,25.0,30.03,SW,223,1.0,-999.0,79,-99.99,,,-99.99,,2013-06-20 11:22:00,
2013-06-20 05:33:00,30.0,25.0,30.03,SW,223,0.0,-999.0,82,-99.99,,,-99.99,,2013-06-20 11:33:00,
2013-06-20 05:42:00,30.0,26.0,30.03,SW,223,1.0,-999.0,84,-99.99,,,-99.99,,2013-06-20 11:42:00,
2013-06-20 05:52:00,30.0,26.0,30.04,SW,223,0.0,-999.0,85,-99.99,,,-99.99,,2013-06-20 11:52:00,
2013-06-20 06:02:00,29.0,26.0,30.05,SW,223,1.0,-999.0,87,-99.99,,,-99.99,,2013-06-20 12:02:00,
2013-06-20 06:11:00,30.0,26.0,30.05,SW,232,0.0,-999.0,86,-99.99,,,-99.99,,2013-06-20 12:11:00,
2013-06-20 06:22:00,32.0,28.0,30.06,SW,225,5.0,-999.0,84,-99.99,,,-99.99,,2013-06-20 12:22:00,
2013-06-20 06:33:00,34.0,28.0,30.06,SW,217,5.0,-999.0,80,-99.99,,,-99.99,,2013-06-20 12:33:00,
2013-06-20 06:43:00,35.0,29.0,30.05,SW,218,5.0,-999.0,78,-99.99,,,-99.99,,2013-06-20 12:43:00,
2013-06-20 06:53:00,35.0,29.0,30.05,SW,217,4.0,-999.0,78,-99.99,,,-99.99,,2013-06-20 12:53:00,
2013-06-20 07:01:00,36.0,29.0,30.05,SW,217,4.0,-999.0,77,-99.99,,,-99.99,,2013-06-20 13:01:00,
2013-06-20 07:11:00,37.0,30.0,30.06,SSW,200,5.0,-999.0,75,-99.99,,,-99.99,,2013-06-20 13:11:00,
2013-06-20 07:22:00,38.0,30.0,30.06,SSW,211,5.0,-999.0,74,-99.99,,,-99.99,,2013-06-20 13:22:00,
2013-06-20 07:33:00,39.0,30.0,30.06,SSW,198,5.0,-999.0,71,-99.99,,,-99.99,,2013-06-20 13:33:00,
2013-06-20 07:42:00,40.0,31.0,30.06,SW,231,4.0,-999.0,71,-99.99,,,-99.99,,2013-06-20 13:42:00,
2013-06-20 07:53:00,41.0,31.0,30.06,SSW,205,5.0,-999.0,67,-99.99,,,-99.99,,2013-06-20 13:53:00,
2013-06-20 08:01:00,42.0,31.0,30.06,WSW,253,5.0,-999.0,66,-99.99,,,-99.99,,2013-06-20 14:01:00,
2013-06-20 08:11:00,43.0,32.0,30.07,WSW,249,3.0,-999.0,64,-99.99,,,-99.99,,2013-06-20 14:11:00,
2013-06-20 08:22:00,44.0,30.0,30.07,SSE,166,5.0,-999.0,58,-99.99,,,-99.99,,2013-06-20 14:22:00,
2013-06-20 08:32:00,45.0,30.0,30.07,SSW,201,7.0,-999.0,56,-99.99,,,-99.99,,2013-06-20 14:32:00,
2013-06-20 08:42:00,46.0,29.0,30.08,SSW,203,8.0,-999.0,51,-99.99,,,-99.99,,2013-06-20 14:42:00,
2013-06-20 08:53:00,47.0,29.0,30.07,SW,219,7.0,-999.0,50,-99.99,,,-99.99,,2013-06-20 14:53:00,
2013-06-20 09:01:00,48.0,30.0,30.07,SSW,212,6.0,-999.0,49,-99.99,,,-99.99,,2013-06-20 15:01:00,
2013-06-20 09:11:00,49.0,29.0,30.08,South,190,7.0,-999.0,45,-99.99,,,-99.99,,2013-06-20 15:11:00,
2013-06-20 09:21:00,49.0,27.0,30.07,SW,236,8.0,-999.0,43,-99.99,,,-99.99,,2013-06-20 15:21:00,
2013-06-20 09:33:00,50.0,28.0,30.08,SSW,207,8.0,-999.0,42,-99.99,,,-99.99,,2013-06-20 15:33:00,
2013-06-20 09:43:00,51.0,25.0,30.08,SSW,197,11.0,-999.0,36,-99.99,,,-99.99,,2013-06-20 15:43:00,
2013-06-20 09:52:00,52.0,25.0,30.08,South,190,10.0,-999.0,34,-99.99,,,-99.99,,2013-06-20 15:52:00,
2013-06-20 10:11:00,53.0,27.0,30.08,SSE,163,10.0,-999.0,36,-99.99,,,-99.99,,2013-06-20 16:11:00,
2013-06-20 10:22:00,54.0,26.0,30.08,SSE,155,9.0,-999.0,34,-99.99,,,-99.99,,2013-06-20 16:22:00,
2013-06-20 10:32:00,54.0,27.0,30.08,South,173,9.0,-999.0,35,-99.99,,,-99.99,,2013-06-20 16:32:00,
2013-06-20 10:42:00,54.0,28.0,30.08,South,182,7.0,-999.0,36,-99.99,,,-99.99,,2013-06-20 16:42:00,
2013-06-20 10:52:00,55.0,26.0,30.06,SE,143,10.0,-999.0,33,-99.99,,,-99.99,,2013-06-20 16:52:00,
2013-06-20 11:01:00,56.0,27.0,30.06,SSW,201,8.0,-999.0,33,-99.99,,,-99.99,,2013-06-20 17:01:00,
2013-06-20 11:11:00,56.0,25.0,30.06,South,189,8.0,-999.0,30,-99.99,,,-99.99,,2013-06-20 17:11:00,
2013-06-20 11:21:00,56.0,24.0,30.06,South,175,8.0,-999.0,29,-99.99,,,-99.99,,2013-06-20 17:21:00,
2013-06-20 11:32:00,57.0,24.0,30.06,SSE,166,9.0,-999.0,28,-99.99,,,-99.99,,2013-06-20 17:32:00,
2013-06-20 11:42:00,57.0,25.0,30.06,SW,215,9.0,-999.0,29,-99.99,,,-99.99,,2013-06-20 17:42:00,
2013-06-20 11:52:00,56.0,23.0,30.06,SW,225,10.0,-999.0,27,-99.99,,,-99.99,,2013-06-20 17:52:00,
2013-06-20 12:01:00,56.0,23.0,30.07,SW,217,10.0,-999.0,27,-99.99,,,-99.99,,2013-06-20 18:01:00,
2013-06-20 12:11:00,58.0,25.0,30.06,South,181,10.0,-999.0,28,-99.99,,,-99.99,,2013-06-20 18:11:00,
2013-06-20 12:22:00,59.0,24.0,30.06,SSW,211,12.0,-999.0,26,-99.99,,,-99.99,,2013-06-20 18:22:00,
2013-06-20 12:33:00,59.0,24.0,30.07,SSW,211,11.0,-999.0,26,-99.99,,,-99.99,,2013-06-20 18:33:00,
2013-06-20 12:42:00,60.0,27.0,30.06,South,181,9.0,-999.0,28,-99.99,,,-99.99,,2013-06-20 18:42:00,
2013-06-20 12:53:00,59.0,28.0,30.06,South,180,9.0,-999.0,30,-99.99,,,-99.99,,2013-06-20 18:53:00,
2013-06-20 13:01:00,59.0,26.0,30.06,SSE,155,11.0,-999.0,28,-99.99,,,-99.99,,2013-06-20 19:01:00,
2013-06-20 13:11:00,59.0,25.0,30.06,South,174,10.0,-999.0,27,-99.99,,,-99.99,,2013-06-20 19:11:00,
2013-06-20 13:22:00,60.0,27.0,30.06,South,190,9.0,-999.0,28,-99.99,,,-99.99,,2013-06-20 19:22:00,
2013-06-20 13:33:00,60.0,28.0,30.06,South,189,9.0,-999.0,29,-99.99,,,-99.99,,2013-06-20 19:33:00,
2013-06-20 13:43:00,60.0,26.0,30.06,SSW,209,11.0,-999.0,27,-99.99,,,-99.99,,2013-06-20 19:43:00,
2013-06-20 13:52:00,60.0,25.0,30.06,SSW,201,9.0,-999.0,26,-99.99,,,-99.99,,2013-06-20 19:52:00,
2013-06-20 14:01:00,60.0,27.0,30.06,South,185,9.0,-999.0,28,-99.99,,,-99.99,,2013-06-20 20:01:00,
2013-06-20 14:11:00,61.0,26.0,30.03,SE,128,8.0,-999.0,26,-99.99,,,-99.99,,2013-06-20 20:11:00,
2013-06-20 14:33:00,61.0,25.0,30.03,SSW,194,10.0,-999.0,25,-99.99,,,-99.99,,2013-06-20 20:33:00,
2013-06-20 14:42:00,62.0,23.0,30.03,SE,136,8.0,-999.0,22,-99.99,,,-99.99,,2013-06-20 20:42:00,
2013-06-20 14:52:00,62.0,24.0,30.03,SE,142,10.0,-999.0,23,-99.99,,,-99.99,,2013-06-20 20:52:00,
2013-06-20 15:01:00,63.0,24.0,30.03,SW,221,7.0,-999.0,22,-99.99,,,-99.99,,2013-06-20 21:01:00,
2013-06-20 16:11:00,64.0,22.0,30.02,SSW,208,11.0,-999.0,20,-99.99,,,-99.99,,2013-06-20 22:11:00,
2013-06-20 22:11:00,48.0,27.0,30.07,SSE,148,0.0,-999.0,43,-99.99,,,-99.99,,2013-06-21 04:11:00,